Showing default

SPOQC, 68423

Orbit data source: Space-Track

SPOQC, 68423 is a Dutch payload satellite in SSO that was launched on Mon, 30 Mar 2026 UTC via an FALCON 9 launch vehicle from the Air Force Western Test Range (AFWTR). Payload-class satellites include a variety of spacecraft equipped with specific instruments for various scientific and technological missions. These include communications satellites like Starlink; space stations such as the ISS; scientific satellites like the Hubble; Earth observation satellites from companies like Planet Labs, Umbra, and HawkEye 360; GPS; miniature CubeSats for education and research; and military/defense satellites.

Loading next visibility...
Identifier
68423, 2026-067H
Orbit
SSO
Country
Flag of NLNL / NETH
Related business
Manufacturer
ISIS BV
Mission
Operational spacecraft
Bus & Motor
CUBESAT 12U, Unknown motor
Mass
~20 kg wet, ~20 kg dry
Launch date (UTC)
2026-03-30 (1 month ago)
Launch vehicle
FALCON 9
Launch site
Air Force Western Test Range (AFWTR)
Object type
Payload
Rocket body
Debris
Shape & HBR
Unknown shape, 14.5 m
Radar Cross Section
RCS unknown

Expand to show TLE details & history
Last TLE update: 9 hours ago

TLE from 9 hours ago
0 SPOQC
1 68423U 26067H   26127.13328485  .00004161  00000-0  20511-3 0  9990
2 68423  97.4486  86.2074 0002628  84.9038 275.2496 15.18480793  5714
Epoch: 2026-05-07T03:11Z
TLE epoch observation values (Epoch: 2026-05-07T03:11:55.811Z)
Latitude
-0°
Longitude
173.24106°
Altitude
513.353 km
Speed
7.607 km/s
True Right ascension
05h 44m 49s
True Declination
0° 00' 00"
Sunlit
Object was in daylight at epoch
Visualization orbit readout
Latitude
Unknown
Longitude
Unknown
Altitude
Unknown
Speed
Unknown
Apparent Right ascension
Unknown
Apparent Declination
Unknown
Sunlit
N/A
Visualization observer readout
Local Sidereal Time
20:04:30
Azimuth
Unknown
Elevation
Unknown
Doppler factor
Unknown
Orbital elements
Apogee altitude
509.211 km
Perigee altitude
505.592 km
Semi-major axis
6,885.538 km
Eccentricity
0.00026
Inclination
97.4486°
RAAN
86.2074°
Arg. of periapsis
84.9038°
True anomaly
275.21961°
Mean anomaly
275.2496°
Eccentric anomaly
275.23461°
Mean motion
3.79871 °/min
Orbital period
94.77 mins
BSTAR
0.00020511
Loading maneuver chart data...
Computing Atmospheric mass density...
Loading historical data...
Loading historical data...
Loading historical data...
Loading historical data...
Loading historical data...
Loading historical data...
Loading historical data...

Documentation

Showing up to 5 results
|